Regional Weather Roundup
Issued by NWS Wakefield, VA

Home | Current Version | Previous Version | Text Only | Print | Product List | Glossary On
Versions: 1 2 3 4 5 6 7 8 9 10 11 12 13 14 15 16 17 18 19 20 21 22 23 24 25 26 27 28 29 30 31 32 33 34 35 36 37 38 39 40 41 42 43 44 45 46 47 48 49 50
000
ASUS41 KAKQ 210515
RWRAKQ

REGIONAL WEATHER ROUNDUP
NATIONAL WEATHER SERVICE WAKEFIELD VA
1200 AM EST WED FEB 21 2018

Note: "fair" indicates few or no clouds below 12,000 feet with no
significant weather and/or obstructions to visibility. * = Denotes
station may not report precipitation (e.g., rain,snow,etc.),
thunder or fog.

VAZ042-051-052>054-056-210600-
NORTHERN VIRGINIA

CITY           SKY/WX    TMP DP  RH WIND       PRES   REMARKS
WASH NATIONAL  MOCLDY    61  57  87 S10       30.34R
DULLES         FAIR      63  58  83 S15       30.32S
FORT BELVOIR   FAIR      64  58  81 S6        30.34S
QUANTICO       FAIR      56  55  97 SW8       30.36S
FREDERICKSBRG* FAIR      64  60  88 SW8       30.36R
STAFFORD*      FAIR      65  62  90 SW7       30.40S
WARRENTON      FAIR      65  56  71 S9        30.34S
CULPEPER*      FAIR      64  56  77 S3        30.36S
MANASSAS*      FAIR      63  58  83 S7        30.34S
LEESBURG*      FAIR      64  59  82 SW7       30.32S
WINCHESTER     FAIR      61  52  72 SW6       30.32S
FRONT ROYAL*   FAIR      64  54  68 SW12G22   30.30S
LURAY*         FAIR      63  54  72 S12G17    30.34S
$$

VAZ048-049-060>072-079>083-210600-
CENTRAL AND SOUTH CENTRAL VIRGINIA

CITY           SKY/WX    TMP DP  RH WIND       PRES   REMARKS
RICHMOND       FAIR      62  61  96 S8        30.40S
CHESTERFIELD*  MOCLDY    63  61  93 S7        30.41S
PETERSBURG*    NOT AVBL
HANOVER        FAIR      63  61  93 S7        30.41R
TAPPAHANNOCK*  MOCLDY    65  63  93 S6        30.40R
QUINTON*       FAIR      62  62 100 S5        30.40S
CHARLOTTSVILLE FAIR      63  57  81 S13       30.36S
GORDONSVILLE*  FAIR      59  58  97 CALM      30.36F
ORANGE*        FAIR      59  55  88 CALM      30.36S
LOUISA*        FAIR      60  57  90 S3        30.42S
BUMPASS*       FAIR      60  58  95 S3        30.38S
FARMVILLE*     FOG      N/A N/A N/A CALM      30.39S VSB 1/2
CREWE*         FAIR      59  59 100 S3        30.40F
FORT PICKETT*  CLOUDY    64  64 100 S8        30.41F
CHASE CITY*    FAIR      57  57 100 SE3       30.41F
CLARKSVILLE*   CLOUDY    59  59 100 S3        30.41F
SOUTH HILL*    CLOUDY    61  61 100 S7        30.47F
LAWRENCEVILLE* FAIR      61  60  97 S5        30.42S
EMPORIA*         N/A     61  61 100 SE3       30.45R
$$

VAZ088>098-210600-
SOUTHEAST VIRGINIA

CITY           SKY/WX    TMP DP  RH WIND       PRES   REMARKS
NORFOLK        MOCLDY    66  64  93 S12       30.43S
VIRGINIA BEACH FAIR      66  62  87 S9        30.44S
NORFOLK NAVAL  FAIR      66  63  90 S9        30.44F
WEST POINT*    FAIR      61  59  95 S5        30.42S
SALUDA*        FAIR      60  60 100 S5        30.41S
NEWPORT NEWS   FAIR      65  62  90 S15       30.42S
LANGLEY AFB    FAIR      65  65 100 S13       30.43S
FORT EUSTIS    FAIR      62  62  98 S7        30.40S
WILLIAMSBURG*  FAIR      61  59  94 S6        30.43S
HR EXEC AP*    FAIR      66  64  93 S9        30.45S
FRANKLIN*      FAIR      61  60  98 S5        30.44S
US460-WAKEFLD  FAIR      62  62 100 S6        30.43S
$$

VAZ020-022-025-037-045-210600-
WEST CENTRAL AND SOUTHWEST VIRGINIA

CITY           SKY/WX    TMP DP  RH WIND       PRES   REMARKS
STAUNTON*      FAIR      54  51  90 CALM      30.39S
WAYNESBORO*    FAIR      58  52  81 SW7       30.38S
HOT SPRINGS VA FAIR      55  51  87 SW13G22   30.44R
LYNCHBURG      FOG       50  49  96 CALM      30.40S VSB 1
DANVILLE       FAIR      54  54 100 CALM      30.41F FOG
SOUTH BOSTON*  FAIR      56  55  95 CALM      30.41F
MARTINSVILLE   FOG       48  47  98 CALM      30.44S VSB 3/4
ROANOKE        FAIR      58  54  86 E5        30.42S
BLACKSBURG     FAIR      50  50  99 CALM      30.45S
DUBLIN*        FAIR      55  53  93 SW7       30.43S
MARION*        FAIR      55  48  77 CALM      30.44R
HILLSVILLE*    FAIR      56  55  93 S5        30.43S
RICHLANDS*     FAIR      60  49  65 S8        30.38F
WISE*          FAIR      63  52  67 S13G21    30.37R
ABINGDON*      FAIR      60  51  71 CALM      30.37F
$$

MDZ021>025-VAZ099-100-210600-
SOUTHERN MARYLAND AND THE DELMARVA PENINSULA

CITY           SKY/WX    TMP DP  RH WIND       PRES   REMARKS
PATUXENT RIVER FAIR      49  49 100 VRB3      30.37S
BAY BRIDGE APT FAIR      59  57  94 S13       30.34S
LEONARDTOWN    FAIR      61  59  94 SW8       30.39R
DOVER          FAIR      61  60  96 S10       30.36R
GEORGETOWN     MOCLDY    64  61  90 S8        30.38S
EASTON         FAIR      61  59  92 SW10      30.40S
CAMBRIDGE      CLOUDY    61  59  94 VRB5      30.38S
SALISBURY      FAIR      63  62  97 S9        30.39S
OCEAN CITY     FOG       52  52 100 S10       30.41S VSB 1/2
WALLOPS ISLAND CLOUDY   N/A N/A N/A S8        30.42S FOG
ACCOMACK*      FAIR      62  61  96 S10       30.42R
$$

NCZ012>017-030>032-210600-
NORTH CENTRAL AND EASTERN NORTH CAROLINA

CITY           SKY/WX    TMP DP  RH WIND       PRES   REMARKS
ROANOKE RAPIDS FAIR      63  63 100 S6        30.44S
RALEIGH        FAIR      64  61  90 S7        30.44S
ELIZABETH CITY FAIR      65  65 100 S8        30.46F
AHOSKIE*       FAIR      63  63 100 S5        30.45S
EDENTON*       FAIR      65  64  96 S9        30.47S
CURRITUCK*     FAIR      62  61  96 S3        30.47S
KILL DEVIL HLS FAIR     N/A N/A N/A CALM      30.47S HAZE
MANTEO         FAIR      60  60 100 S7        30.49S FOG
CAPE HATTERAS  MOCLDY    65  64  97 S7        30.50R
TARBORO*       NOT AVBL
GOLDSBORO      FAIR      65  64  95 CALM      30.44S
WASHINGTON     FAIR      66  65  97 S5        30.47S
GREENVILLE     MOCLDY    64  64 100 S6        30.46S
NEW BERN       CLOUDY    66  66 100 S6        30.48S
WILMINGTON     FAIR      64  64 100 S5        30.47S
$$

VAZ048-210600-
ELSEWHERE

CITY           SKY/WX    TMP DP  RH WIND       PRES   REMARKS
HARRISBURG PA  FAIR      52  48  86 CALM      30.28S
BALTIMORE      FAIR      56  56 100 SE5       30.32S
ANNAPOLIS      FOG       56  56 100 S6        30.34S VSB 1/2
ANDREWS AFB    CLEAR     63  58  84 S13       30.33S
PHILADELPHIA   FAIR      59  57  93 SW8       30.34S
HENDERSON NC   CLOUDY    61  58  89 S7        30.43S
GREENSBORO     FAIR      58  58 100 S5        30.41S
ROCKY MOUNT    FAIR      63  62  97 S5        30.45S
$$

VAZ100-210600-
MARINE

STATION/POSITION TIME  TEMP    WIND        PRES    WAVE   SWELL
                       AIR SEA DIR/SP/G            HT/PER HT/PER
                 (UTC) (F)     (DEG/KT/KT) (MB)    (FT/S) (FT/S)
BRANDYWINE LGT   0448   59     190/ 17/ 18 1028.9R
CAPE MAY NJ      0448   51 44  160/  7/ 12 1028.5R
LEWES DE         0448   62 42  160/  5/  5 1028.7R
15NM E FENWICK I 0450   45 42  190/ 10/ 12 1030.2S   3/12   3/12
OCEAN-CITY-INLET 0448   44 41  210/ 12/ 14 1030.2R
WACHAPREAGUE VA  0448   52 50  220/  6/  7 1030.3R
THOMAS POINT MD  0500   49 40  180/ 16/ 17   N/A
GOOSES REEF MD   0500   45 40  160/ 12/ 14 1028.5    1/ 3
COVE POINT MD    0448   47     180/ 10/ 12 1028.9S
SOLOMONS ISLAND  0448   50 43  110/  4/  5 1028.1R
BISHOPS HEAD MD  0448   53 53  180/ 12/ 13 1029.4S
PINEY POINT MD   0448          160/  5/  6   N/A
POTOMAC MD       0500   48 43   10/  8/ 10 1028.4    1
CAMBRIDGE MD     0448   60 46              1029.3S
LEWISETTA VA     0448   64 49  220/  9/ 11 1028.8R
RAPPAHANNOCK LGT 0448          170/ 14/ 15 1030.6R
STINGRAY PT      0500   49 43  170/  2/  6 1030.7
YORK RVR RNG VA  0448   56     210/ 15/ 16 1030.6F
YORKTOWN VA      0448   65 44  210/ 10/ 15 1029.6F
DOMINION TERM VA 0448   60     200/  9/ 11 1030.8S
KIPTOPEKE VA     0448      44  170/  7/  8   N/A
CAPE HENRY VA    0448   67     190/  8/ 15   N/A
S CRANEY ISL VA  0448   64     210/  8/ 11 1030.5S
CAPE HENRY BUOY  0500      45                N/A     3/12   2/12
1ST LANDING BUOY 0500   53 42  200/  8/ 10 1030.7    1/ 4
CAPE CHARLES BUO 0421      44                N/A     3/12   2/12
64NM E OF VA BCH 0450   57 53  200/ 14/ 16 1032.2F   3/12   3/12
DUCK PIER NC     0448   65 44  190/ 12/ 14 1031.4S
44100 DUCK FRF   0445      46                N/A     3/12   2/12
44056 DUCK FRF   0500      46                N/A     3/12   2/12
OREGON INLET NC  0442   58 58  170/  5/  5 1032.6R
HATTERAS NC      0448   65 59  180/  4/  6 1032.4S
DIAMOND SHLS NC  0450   72     180/ 12/ 14 1033.0R   4/11   3/11
CAPE LOOKOUT NC  0500          190/  6/  7 1032.7R
$$



USA.gov is the U.S. government's official web portal to all federal, state and local government web resources and services.